Satellite: NO-44
Catalog number: 26931
Epoch time:      06270.85283452
Element set:    0412
Inclination:      067.0499 deg
RA of node:       103.2328 deg
Eccentricity:    0.0005247
Arg of perigee:   252.9142 deg
Mean anomaly:     107.1374 deg
Mean motion:   14.29452633 rev/day
Decay rate:      -1.71e-06 rev/day^2
Epoch rev:           26060
Checksum:              281

Satellite: SO-50
Catalog number: 27607
Epoch time:      06271.83046588
Element set:     132
Inclination:      064.5591 deg
RA of node:       158.4753 deg
Eccentricity:    0.0035394
Arg of perigee:   104.0245 deg
Mean anomaly:     256.4773 deg
Mean motion:   14.71175718 rev/day
Decay rate:       -5.5e-07 rev/day^2
Epoch rev:           20267
Checksum:              309

Satellite: CO-55
Catalog number: 27844
Epoch time:      06270.65245492
Element set:     858
Inclination:      098.7230 deg
RA of node:       277.5329 deg
Eccentricity:    0.0010341
Arg of perigee:   124.2855 deg
Mean anomaly:     235.9287 deg
Mean motion:   14.20459016 rev/day
Decay rate:        2.3e-07 rev/day^2
Epoch rev:           16820
Checksum:              309

Satellite: CO-57
Catalog number: 27848
Epoch time:      06271.55601309
Element set:     824
Inclination:      098.7222 deg
RA of node:       277.7258 deg
Eccentricity:    0.0010157
Arg of perigee:   125.2872 deg
Mean anomaly:     234.9259 deg
Mean motion:   14.20285743 rev/day
Decay rate:        4.1e-07 rev/day^2
Epoch rev:           16831
Checksum:              314

Satellite: AO-51
Catalog number: 28375
Epoch time:      06270.66830295
Element set:    0640
Inclination:      098.1540 deg
RA of node:       317.9772 deg
Eccentricity:    0.0083298
Arg of perigee:   258.0041 deg
Mean anomaly:     101.1806 deg
Mean motion:   14.40534209 rev/day
Decay rate:        1.7e-07 rev/day^2
Epoch rev:           11792
Checksum:              296

Satellite: CO-56
Catalog number: 28941
Epoch time:      06270.94631379
Element set:    0235
Inclination:      098.1708 deg
RA of node:       299.6038 deg
Eccentricity:    0.0269221
Arg of perigee:   113.7552 deg
Mean anomaly:     249.2169 deg
Mean motion:   15.28224741 rev/day
Decay rate:     1.6552e-04 rev/day^2
Epoch rev:           03322
Checksum:              324

/EX
SB KEPS @ AMSAT  $ORB06271.W
Orbital Elements  06271.WEATHER

HR AMSAT ORBITAL ELEMENTS FOR WEATHER SATELLITES
FROM WA5QGD FORT WORTH,TX September 28, 2006
Send SUBSCRIBE KEPS/UNSUBSCRIBE KEPS to majordomo@amsat.org only
BID: ORB06271.W
TO ALL RADIO AMATEURS BT

Satellite: NOAA-10
Catalog number: 16969
Epoch time:      06270.56351528
Element set:    0362
Inclination:      098.7595 deg
RA of node:       282.4173 deg
Eccentricity:    0.0011841
Arg of perigee:   210.1579 deg
Mean anomaly:     149.8929 deg
Mean motion:   14.27304798 rev/day
Decay rate:        5.2e-07 rev/day^2
Epoch rev:           04176
Checksum:              326

Satellite: NOAA-11
Catalog number: 19531
Epoch time:      06270.83407586
Element set:    0304
Inclination:      098.8249 deg
RA of node:       358.1308 deg
Eccentricity:    0.0012314
Arg of perigee:   059.8159 deg
Mean anomaly:     300.4232 deg
Mean motion:   14.14817251 rev/day
Decay rate:      -1.93e-06 rev/day^2
Epoch rev:           92905
Checksum:              297

Satellite: NOAA-12
Catalog number: 21263
Epoch time:      06270.79442166
Element set:    0798
Inclination:      098.7387 deg
RA of node:       263.6853 deg
Eccentricity:    0.0013055
Arg of perigee:   146.4126 deg
Mean anomaly:     213.7866 deg
Mean motion:   14.25508244 rev/day
Decay rate:        2.7e-07 rev/day^2
Epoch rev:           79886
Checksum:              334

Satellite: MET-3/5
Catalog number: 21655
Epoch time:      06270.92515554
Element set:    0186
Inclination:      082.5577 deg
RA of node:       188.2135 deg
Eccentricity:    0.0013498
Arg of perigee:   139.0363 deg
Mean anomaly:     221.1772 deg
Mean motion:   13.17007534 rev/day
Decay rate:        5.1e-07 rev/day^2
Epoch rev:           72688
Checksum:              306

Satellite: MET-2/21
Catalog number: 22782
Epoch time:      06270.64788931
Element set:    0626
Inclination:      082.5441 deg
RA of node:       250.1584 deg
Eccentricity:    0.0020771
Arg of perigee:   251.9020 deg
Mean anomaly:     107.9878 deg
Mean motion:   13.83610452 rev/day
Decay rate:        4.9e-07 rev/day^2
Epoch rev:           66021
Checksum:              298

Satellite: OKEAN-4
Catalog number: 23317
Epoch time:      06270.75171184
Element set:      61
Inclination:      082.5427 deg
RA of node:       181.3439 deg
Eccentricity:    0.0023737
Arg of perigee:   039.7550 deg
Mean anomaly:     320.5390 deg
Mean motion:   14.82403066 rev/day
Decay rate:       3.78e-06 rev/day^2
Epoch rev:           64517
Checksum:              291

Satellite: NOAA-14
Catalog number: 23455
Epoch time:      06270.64265874
Element set:    0294
Inclination:      099.0266 deg
RA of node:       329.9565 deg
Eccentricity:    0.0010049
Arg of perigee:   120.5849 deg
Mean anomaly:     239.6310 deg
Mean motion:   14.13686818 rev/day
Decay rate:       3.08e-06 rev/day^2
Epoch rev:           60554
Checksum:              321

Satellite: SICH-1
Catalog number: 23657
Epoch time:      06270.74790210
Element set:     864
Inclination:      082.5299 deg
RA of node:       322.2558 deg
Eccentricity:    0.0024992
Arg of perigee:   029.3665 deg
Mean anomaly:     330.8946 deg
Mean motion:   14.81394470 rev/day
Decay rate:       3.26e-06 rev/day^2
Epoch rev:           59717
Checksum:              330

